Regional Weather Roundup
Issued by NWS

Home | Current Version | Previous Version | Text Only | Print | Product List | Glossary Off
Versions: 1 2 3 4 5 6 7 8 9 10 11 12 13 14 15 16 17 18 19 20 21 22 23 24 25 26 27 28 29 30 31 32 33 34 35 36 37 38 39 40 41 42 43 44 45 46 47 48 49 50

000
ASUS44 KMEG 251700
RWRTN
TENNESSEE HOURLY STATE WEATHER ROUNDUP
NATIONAL WEATHER SERVICE MEMPHIS TN
1200 PM CDT MON MAY 25 2015

TNZ002-004-019-021-049-052-054-088>092-251800-
WEST TENNESSEE

CITY           SKY/WX    TMP DP  RH WIND       PRES   REMARKS
MEMPHIS INTL   CLOUDY    77  68  73 S9        30.09S
NWS MEMPHIS      N/A     75 N/A N/A MISG        N/A
JACKSON        CLOUDY    73  68  84 SE6       30.11S
DYERSBURG      CLOUDY    72  57  60 CALM      30.10S
PARIS          CLOUDY    66  66 100 SE10      30.13S
LEXINGTON      CLOUDY    66  66 100 CALM      30.13S
$$

TNZ008-025-027-028-033-062-065-066-251800-
NORTH MIDDLE TENNESSEE

CITY           SKY/WX    TMP DP  RH WIND       PRES   REMARKS
NASHVILLE      LGT RAIN  69  66  90 SE6       30.18F
CLARKSVILLE    LGT RAIN  68  67  96 SE8       30.16S
COOKEVILLE     MOSUNNY   75  63  64 S8        30.21S
CROSSVILLE     CLOUDY    73  60  63 S9G20     30.27S
$$

TNZ061-075-076-078-094-096-097-251800-
SOUTH MIDDLE TENNESSEE

CITY           SKY/WX    TMP DP  RH WIND       PRES   REMARKS
FAYETTEVILLE   CLOUDY   N/A N/A N/A MISG      30.20S
TULLAHOMA      CLOUDY    72  63  73 S7        30.22S
WINCHESTER     CLOUDY    73  64  73 S10       30.22S
MCMINNVILLE    MOSUNNY   75  64  69 VRB5      30.21F
COLUMBIA       CLOUDY    70  68  94 SE7       30.13F
SHELBYVILLE    CLOUDY    73  68  83 SE7       30.19F
$$

TNZ017-018-042-046-047-251800-
NORTHEAST TENNESSEE

CITY           SKY/WX    TMP DP  RH WIND       PRES   REMARKS
TRI CITIES     MOSUNNY   81  54  39 VRB7G17   30.27F
ELIZABETHTON   SUNNY     79  55  44 SW9       30.28F
$$

TNZ012-013-036-069-073-074-251800-
CENTRAL EAST TENNESSEE

CITY           SKY/WX    TMP DP  RH WIND       PRES   REMARKS
KNOXVILLE      MOSUNNY   83  55  38 S15       30.23F
OAK RIDGE      MOSUNNY   82  58  43 SW8       30.24F
GATLINBURG       N/A     82  57  42 VRB3      30.23F
$$

TNZ083-085-099-251800-
SOUTHEAST TENNESSEE

CITY           SKY/WX    TMP DP  RH WIND       PRES   REMARKS
CHATTANOOGA    PTSUNNY   78  63  59 SE14      30.23F
$$

SKY/WX REPORTED AS FAIR MEANS FEW OR NO CLOUDS BELOW
12 THOUSAND FEET.



USA.gov is the U.S. government's official web portal to all federal, state and local government web resources and services.